Content
SEND FEEDBACK

Daily
Averages
Monthly
Summary
United States of America

CAMP QUEZON, GUAM


Home > North America > United States > Guam
Elevation: 269 feet     Latitude: 13 28N     Longitude: 144 48E

WEATHER
 
SELECT A DAY
Number of Records: 208,919;   Date Range: 1/1/95 - 7/23/14
 
SHARE

PRINT THIS DATA

[ ← Previous Day ]
WEATHER ALMANAC - MAY 23, 2013
[ Next Day → ]
[ °C ]   °F
Weather ElementAverageHighLow
Temperature86.3 °F90 °F (12:54 pm)82 °F (1:54 am)
Dewpoint74.9 °F78.1 °F (8:54 pm)73 °F (7:54 am)
Humidity69.2 %84 % (9:34 pm)57 % (1:54 pm)
Barometer29.88 in29.93 in (9:16 am)29.83 in (2:54 pm)
Wind Speed7.7 mph12.7 mph (12:27 pm)
Wind Gust17.3 mph (11:54 am)
Weather ElementAverage
Visibility10 mi
Wind DirectionE (87.3 °)

Weather ElementTotal
Precipitation0.05 in
Cooling Degree Days21 (Base 65)
Growing Degree Days36 (Base 50)
Averaged from 30 records on May 23, 2013
WEATHER CONDITIONS BREAKOUT
WIND DIRECTION BREAKOUT
WEATHER BY HOUR - MAY 23, 2013
[ °C ]   °F
Local TimeTemperatureDewpointHumidityBarometerVisibilityWind DirectionWind SpeedGust SpeedPrecipitationEventsConditions
1:54 AM82.0 °F75.9 °F82 %29.85 in10.0 miEast (80°)4.6 mphPartly Cloudy
2:54 AM82.9 °F75.0 °F77 %29.85 in10.0 miEast (80°)4.6 mphPartly Cloudy
3:54 AM82.9 °F75.0 °F77 %29.85 in10.0 miENE (70°)3.5 mphPartly Cloudy
4:54 AM82.9 °F73.9 °F74 %29.86 in10.0 miENE (70°)4.6 mphClear
5:54 AM82.9 °F73.9 °F74 %29.88 in10.0 miENE (60°)3.5 mphPartly Cloudy
6:54 AM84.0 °F73.9 °F72 %29.89 in10.0 miEast (90°)5.8 mphClear
7:54 AM87.1 °F73.0 °F63 %29.90 in10.0 miENE (70°)11.5 mphPartly Cloudy
8:54 AM88.0 °F73.9 °F63 %29.91 in10.0 miEast (90°)10.4 mphScattered Clouds
9:16 AM87.8 °F75.2 °F66 %29.93 in10.0 miESE (110°)10.4 mphMostly Cloudy
9:39 AM87.8 °F75.2 °F66 %29.93 in10.0 miEast (100°)9.2 mphScattered Clouds
9:54 AM88.0 °F73.9 °F63 %29.91 in10.0 miEast (90°)9.2 mphMostly Cloudy
10:54 AM89.1 °F73.9 °F61 %29.90 in10.0 miEast (100°)10.4 mphScattered Clouds
11:36 AM89.6 °F75.2 °F62 %29.90 in10.0 miESE (110°)10.4 mphMostly Cloudy
11:54 AM89.1 °F75.0 °F63 %29.88 in10.0 miESE (120°)9.2 mph17.3 mphMostly Cloudy
12:01 PM89.6 °F75.2 °F62 %29.90 in10.0 miEast (100°)11.5 mph17.3 mphMostly Cloudy
12:27 PM89.6 °F75.2 °F62 %29.89 in10.0 miEast (100°)12.7 mph17.3 mphMostly Cloudy
12:54 PM90.0 °F73.9 °F59 %29.86 in10.0 miEast (100°)11.5 mphMostly Cloudy
1:54 PM90.0 °F73.0 °F57 %29.84 in10.0 miESE (120°)8.1 mphPartly Cloudy
2:54 PM90.0 °F73.9 °F59 %29.83 in10.0 miESE (110°)11.5 mphPartly Cloudy
3:54 PM89.1 °F73.9 °F61 %29.83 in10.0 miEast (100°)9.2 mphPartly Cloudy
4:54 PM89.1 °F73.9 °F61 %29.83 in10.0 miENE (70°)8.1 mphClear
5:54 PM88.0 °F73.0 °F61 %29.84 in10.0 miEast (90°)9.2 mphClear
6:54 PM86.0 °F75.0 °F70 %29.86 in10.0 miEast (90°)5.8 mphClear
7:54 PM84.9 °F75.0 °F72 %29.87 in10.0 miCalmClear
8:54 PM84.0 °F78.1 °F82 %29.89 in10.0 miENE (60°)5.8 mph0.02 inMostly Cloudy
9:34 PM82.4 °F77.0 °F84 %29.92 in10.0 miEast (80°)4.6 mph0.01 inRainLight Rain
9:45 PM84.2 °F77.0 °F79 %29.92 in10.0 miEast (80°)6.9 mph0.01 inMostly Cloudy
9:54 PM82.9 °F77.0 °F82 %29.90 in10.0 miEast (90°)5.8 mph0.01 inMostly Cloudy
10:54 PM82.9 °F75.9 °F79 %29.90 in10.0 miEast (90°)5.8 mphPartly Cloudy
11:54 PM82.0 °F75.9 °F82 %29.88 in10.0 miEast (100°)8.1 mphPartly Cloudy
Hourly data recorded from PGUM, located miles away from Camp Quezon, Guam







STORIES FROM OUR PARTNERS